User: anonymous   Login
Location: Caltech
(34.1382°N, 118.1253°W)
Time: 02:21:33
(UTC-07:00)
Language:

Meteor 1-11 Rocket - Orbit

View from above orbital plane
View from above orbital plane
View from above satellite
View from above satellite

Ground track
Ground track

The orbit data is extracted from the following two-line orbital elements,

1  5918U 72022B   17265.93535243 +.00000187 +00000-0 +10491-3 0  9995
2  5918 081.2364 231.3059 0059195 052.5952 308.0584 14.05827719331468
Epoch (UTC): 22 September 2017 22:26:54
Eccentricity: 0.0059195
inclination: 81.2364°
perigee height: 831 km
apogee height: 916 km
right ascension of ascending node: 231.3059°
argument of perigee: 52.5952°
revolutions per day: 14.05827719
mean anomaly at epoch: 308.0584°
orbit number at epoch: 33146

The dashed part of the orbit path shows where the satellite is in the earth's shadow,  

DLR